H1 CPF 2 NER 2025 9 18 9 261 01 glonass129 H2 1106402 9129 37868 2025 9 18 0 0 0 2025 9 21 23 45 0 900 1 1 0 0 0 1 H9 10 0 60936 0.00000 0 6978999.510 22036148.999 -10817038.811 10 0 60936 900.00000 0 7278656.657 23165660.862 -7872236.642 10 0 60936 1800.00000 0 7591171.172 23904958.709 -4774825.521 10 0 60936 2700.00000 0 7860033.831 24245173.739 -1584903.495 10 0 60936 3600.00000 0 8029111.044 24190857.850 1635712.894 10 0 60936 4500.00000 0 8045231.505 23759677.334 4824679.785 10 0 60936 5400.00000 0 7860651.541 22981579.551 7920322.284 10 0 60936 6300.00000 0 7435296.084 21897469.054 10862813.536 10 0 60936 7200.00000 0 6738681.977 20557449.556 13595314.871 10 0 60936 8100.00000 0 5751443.639 19018705.577 16065056.393 10 0 60936 9000.00000 0 4466397.672 17343111.937 18224338.746 10 0 60936 9900.00000 0 2889101.946 15594669.968 20031438.347 10 0 60936 10800.00000 0 1037885.282 13836875.979 21451400.227 10 0 60936 11700.00000 0 -1056654.629 12130129.959 22456704.627 10 0 60936 12600.00000 0 -3352665.993 10529290.702 23027795.545 10 0 60936 13500.00000 0 -5798530.483 9081477.503 23153461.677 10 0 60936 14400.00000 0 -8334764.612 7824208.644 22831062.496 10 0 60936 15300.00000 0 -10896258.896 6783953.372 22066594.583 10 0 60936 16200.00000 0 -13414764.747 5975157.466 20874595.829 10 0 60936 17100.00000 0 -15821528.475 5399783.373 19277887.761 10 0 60936 18000.00000 0 -18049964.964 5047385.001 17307158.952 10 0 60936 18900.00000 0 -20038261.174 4895715.296 15000395.357 10 0 60936 19800.00000 0 -21731801.552 4911842.559 12402166.334 10 0 60936 20700.00000 0 -23085313.837 5053730.051 9562778.161 10 0 60936 21600.00000 0 -24064644.508 5272213.463 6537309.785 10 0 60936 22500.00000 0 -24648087.935 5513293.530 3384548.399 10 0 60936 23400.00000 0 -24827211.458 5720646.844 165845.108 10 0 60936 24300.00000 0 -24607139.754 5838247.915 -3056086.821 10 0 60936 25200.00000 0 -24006284.673 5812989.884 -6218406.841 10 0 60936 26100.00000 0 -23055530.580 5597190.713 -9259389.577 10 0 60936 27000.00000 0 -21796908.797 5150876.021 -12119648.753 10 0 60936 27900.00000 0 -20281817.003 4443739.009 -14743316.680 10 0 60936 28800.00000 0 -18568859.317 3456691.665 -17079154.151 10 0 60936 29700.00000 0 -16721399.334 2182939.116 -19081567.231 10 0 60936 30600.00000 0 -14804930.757 628529.630 -20711509.569 10 0 60936 31500.00000 0 -12884378.051 -1187644.405 -21937251.523 10 0 60936 32400.00000 0 -11021442.203 -3234395.399 -22735000.592 10 0 60936 33300.00000 0 -9272104.324 -5469316.549 -23089361.022 10 0 60936 34200.00000 0 -7684392.522 -7840339.387 -22993624.104 10 0 60936 35100.00000 0 -6296505.645 -10287706.922 -22449884.409 10 0 60936 36000.00000 0 -5135371.692 -12746278.929 -21468980.878 10 0 60936 36900.00000 0 -4215699.712 -15148072.054 -20070265.349 10 0 60936 37800.00000 0 -3539562.689 -17424927.925 -18281204.513 10 0 60936 38700.00000 0 -3096526.135 -19511197.487 -16136824.563 10 0 60936 39600.00000 0 -2864313.987 -21346329.564 -13679010.781 10 0 60936 40500.00000 0 -2809980.792 -22877256.195 -10955676.978 10 0 60936 41400.00000 0 -2891538.044 -24060476.311 -8019821.997 10 0 60936 42300.00000 0 -3059963.831 -24863752.261 -4928492.471 10 0 60936 43200.00000 0 -3261509.271 -25267350.340 -1741672.557 10 0 60936 44100.00000 0 -3440203.364 -25264775.589 1478877.610 10 0 60936 45000.00000 0 -3540450.145 -24862972.365 4670812.277 10 0 60936 45900.00000 0 -3509608.741 -24081984.310 7772396.609 10 0 60936 46800.00000 0 -3300448.209 -22954089.575 10723687.102 10 0 60936 47700.00000 0 -2873374.636 -21522448.590 13467674.066 10 0 60936 48600.00000 0 -2198337.805 -19839321.367 15951365.541 10 0 60936 49500.00000 0 -1256338.151 -17963928.571 18126793.293 10 0 60936 50400.00000 0 -40471.228 -15960044.778 19951923.091 10 0 60936 51300.00000 0 1443534.095 -13893422.858 21391453.360 10 0 60936 52200.00000 0 3177306.964 -11829154.951 22417488.227 10 0 60936 53100.00000 0 5130357.164 -9829077.912 23010073.066 10 0 60936 54000.00000 0 7261109.316 -7949329.190 23157582.876 10 0 60936 54900.00000 0 9518408.192 -6238153.054 22856956.094 10 0 60936 55800.00000 0 11843435.436 -4734047.119 22113768.854 10 0 60936 56700.00000 0 14171960.956 -3464325.541 20942147.159 10 0 60936 57600.00000 0 16436838.216 -2444158.539 19364517.082 10 0 60936 58500.00000 0 18570641.933 -1676128.736 17411195.827 10 0 60936 59400.00000 0 20508340.063 -1150323.725 15119829.336 10 0 60936 60300.00000 0 22189889.583 -844962.149 12534685.055 10 0 60936 61200.00000 0 23562647.673 -727528.332 9705811.552 10 0 60936 62100.00000 0 24583496.665 -756368.889 6688079.559 10 0 60936 63000.00000 0 25220592.223 -882684.783 3540121.930 10 0 60936 63900.00000 0 25454659.351 -1052835.006 323192.656 10 0 60936 64800.00000 0 25279779.551 -1210853.991 -2900032.666 10 0 60936 65700.00000 0 24703633.806 -1301075.018 -6066690.686 10 0 60936 66600.00000 0 23747189.279 -1270746.655 -9114972.978 10 0 60936 67500.00000 0 22443841.605 -1072528.948 -11985351.470 10 0 60936 68400.00000 0 20838048.262 -666760.895 -14621760.669 10 0 60936 69300.00000 0 18983510.655 -23400.372 -16972711.508 10 0 60936 70200.00000 0 16940982.206 876448.251 -18992313.203 10 0 60936 71100.00000 0 14775795.906 2039485.627 -20641181.602 10 0 60936 72000.00000 0 12555216.805 3459694.112 -21887215.218 10 0 60936 72900.00000 0 10345732.219 5118362.731 -22706223.216 10 0 60936 73800.00000 0 8210394.631 6984659.889 -23082393.084 10 0 60936 74700.00000 0 6206329.615 9016729.571 -23008589.312 10 0 60936 75600.00000 0 4382513.350 11163264.469 -22486478.133 10 0 60936 76500.00000 0 2777912.246 13365489.159 -21526477.092 10 0 60936 77400.00000 0 1420061.263 15559469.262 -20147531.824 10 0 60936 78300.00000 0 324138.380 17678649.017 -18376725.905 10 0 60936 79200.00000 0 -507428.688 19656510.421 -16248732.857 10 0 60936 80100.00000 0 -1084810.080 21429242.423 -13805122.445 10 0 60936 81000.00000 0 -1430085.323 22938308.717 -11093536.034 10 0 60936 81900.00000 0 -1576050.900 24132807.438 -8166748.133 10 0 60936 82800.00000 0 -1564576.852 24971525.191 -5081633.241 10 0 60936 83700.00000 0 -1444583.937 25424601.058 -1898058.634 10 0 60936 84600.00000 0 -1269728.285 25474732.807 1322275.190 10 0 60936 85500.00000 0 -1095892.142 25117876.760 4517023.946 10 0 60937 0.00000 0 -978586.808 24363413.998 7624396.014 10 0 60937 900.00000 0 -970376.899 23233777.091 10584335.180 10 0 60937 1800.00000 0 -1118433.852 21763555.176 13339663.730 10 0 60937 2700.00000 0 -1462320.433 19998114.056 15837170.742 10 0 60937 3600.00000 0 -2032098.586 17991789.713 18028621.980 10 0 60937 4500.00000 0 -2846839.208 15805729.535 19871675.187 10 0 60937 5400.00000 0 -3913595.974 13505469.907 21330684.502 10 0 60937 6300.00000 0 -5226886.420 11158349.136 22377379.923 10 0 60937 7200.00000 0 -6768702.880 8830861.228 22991409.808 10 0 60937 8100.00000 0 -8509054.410 6586058.286 23160736.635 10 0 60937 9000.00000 0 -10407019.357 4481107.364 22881878.511 10 0 60937 9900.00000 0 -12412267.358 2565101.593 22159991.302 10 0 60937 10800.00000 0 -14466990.295 877215.308 21008788.755 10 0 60937 11700.00000 0 -16508164.685 -554720.711 19450300.550 10 0 60937 12600.00000 0 -18470053.792 -1715164.582 17514471.032 10 0 60937 13500.00000 0 -20286847.156 -2601289.279 15238604.111 10 0 60937 14400.00000 0 -21895328.665 -3222870.505 12666662.864 10 0 60937 15300.00000 0 -23237461.995 -3601640.006 9848435.316 10 0 60937 16200.00000 0 -24262784.750 -3770130.349 6838580.881 10 0 60937 17100.00000 0 -24930509.594 -3770058.890 3695574.805 10 0 60937 18000.00000 0 -25211242.213 -3650318.580 480570.605 10 0 60937 18900.00000 0 -25088241.525 -3464660.658 -2743797.151 10 0 60937 19800.00000 0 -24558166.617 -3269168.044 -5914645.634 10 0 60937 20700.00000 0 -23631276.654 -3119627.936 -8970086.610 10 0 60937 21600.00000 0 -22331073.418 -3068916.994 -11850453.318 10 0 60937 22500.00000 0 -20693400.290 -3164512.419 -14499485.394 10 0 60937 23400.00000 0 -18765035.048 -3446237.032 -16865446.599 10 0 60937 24300.00000 0 -16601835.867 -3944336.481 -18902151.633 10 0 60937 25200.00000 0 -14266519.271 -4677972.226 -20569880.466 10 0 60937 26100.00000 0 -11826164.582 -5654195.892 -21836161.163 10 0 60937 27000.00000 0 -9349551.026 -6867449.541 -22676405.386 10 0 60937 27900.00000 0 -6904440.414 -8299613.560 -23074384.109 10 0 60937 28800.00000 0 -4554920.271 -9920600.164 -23022534.690 10 0 60937 29700.00000 0 -2358919.057 -11689467.043 -22522094.177 10 0 60937 30600.00000 0 -365997.195 -13556003.489 -21583057.418 10 0 60937 31500.00000 0 1384494.648 -15462721.320 -20223962.176 10 0 60937 32400.00000 0 2864814.780 -17347165.977 -18471506.944 10 0 60937 33300.00000 0 4059731.041 -19144449.965 -16360010.393 10 0 60937 34200.00000 0 4966887.936 -20789901.796 -13930724.434 10 0 60937 35100.00000 0 5596628.216 -22221719.196 -11231015.561 10 0 60937 36000.00000 0 5971279.721 -23383515.668 -8313431.491 10 0 60937 36900.00000 0 6123940.619 -24226654.413 -5234672.137 10 0 60937 37800.00000 0 6096816.874 -24712272.990 -2054485.484 10 0 60937 38700.00000 0 5939184.154 -24812915.360 1165489.941 10 0 60937 39600.00000 0 5705061.513 -24513704.627 4362913.576 10 0 60937 40500.00000 0 5450695.649 -23813009.044 7475939.707 10 0 60937 41400.00000 0 5231961.842 -22722574.917 10444400.339 10 0 60937 42300.00000 0 5101790.538 -21267121.984 13210952.227 10 0 60937 43200.00000 0 5107727.013 -19483418.832 15722167.276 10 0 60937 44100.00000 0 5289725.641 -17418876.951 17929546.873 10 0 60937 45000.00000 0 5678270.386 -15129721.429 19790442.166 10 0 60937 45900.00000 0 6292899.582 -12678813.200 21268864.215 10 0 60937 46800.00000 0 7141196.539 -10133211.620 22336169.852 10 0 60937 47700.00000 0 8218288.538 -7561576.515 22971611.118 10 0 60937 48600.00000 0 9506876.185 -5031515.183 23162738.411 10 0 60937 49500.00000 0 10977793.623 -2606982.174 22905649.701 10 0 60937 50400.00000 0 12591078.472 -345837.669 22205080.561 10 0 60937 51300.00000 0 14297509.548 1702335.766 21074332.237 10 0 60937 52200.00000 0 16040551.029 3498068.445 19535037.602 10 0 60937 53100.00000 0 17758624.553 5013414.895 17616767.533 10 0 60937 54000.00000 0 19387616.684 6232882.299 15356483.136 10 0 60937 54900.00000 0 20863518.495 7153836.628 12797842.127 10 0 60937 55800.00000 0 22125087.612 7786368.424 9990370.773 10 0 60937 56700.00000 0 23116421.016 8152622.754 6988515.707 10 0 60937 57600.00000 0 23789329.658 8285620.441 3850592.818 10 0 60937 58500.00000 0 24105413.320 8227619.526 637653.149 10 0 60937 59400.00000 0 24037746.108 8028085.912 -2587712.022 10 0 60937 60300.00000 0 23572098.986 7741359.391 -5762602.827 10 0 60937 61200.00000 0 22707645.185 7424114.958 -8825053.780 10 0 60937 62100.00000 0 21457116.445 7132728.606 -11715262.032 10 0 60937 63000.00000 0 19846401.581 6920661.434 -14376774.916 10 0 60937 63900.00000 0 17913603.157 6835975.360 -16757611.497 10 0 60937 64800.00000 0 15707591.465 6919088.168 -18811294.346 10 0 60937 65700.00000 0 13286116.815 7200865.265 -20497769.793 10 0 60937 66600.00000 0 10713560.230 7701130.731 -21784197.576 10 0 60937 67500.00000 0 8058418.016 8427662.001 -22645593.818 10 0 60937 68400.00000 0 5390626.826 9375711.295 -23065314.755 10 0 60937 69300.00000 0 2778842.290 10528074.102 -23035372.147 10 0 60937 70200.00000 0 287785.731 11855701.331 -22556575.065 10 0 60937 71100.00000 0 -2024230.053 13318828.443 -21638496.483 10 0 60937 72000.00000 0 -4107493.106 14868572.872 -20299266.659 10 0 60937 72900.00000 0 -5922712.478 16448931.242 -18565198.893 10 0 60937 73800.00000 0 -7442392.227 17999091.283 -16470256.390 10 0 60937 74700.00000 0 -8651704.426 19455960.326 -14055372.118 10 0 60937 75600.00000 0 -9548827.757 20756803.565 -11367636.164 10 0 60937 76500.00000 0 -10144740.834 21841881.180 -8459367.520 10 0 60937 77400.00000 0 -10462482.218 22656973.878 -5387089.231 10 0 60937 78300.00000 0 -10535911.281 23155691.625 -2210427.425 10 0 60937 79200.00000 0 -10408024.611 23301469.795 1009044.145 10 0 60937 80100.00000 0 -10128900.753 23069170.423 4208991.615 10 0 60937 81000.00000 0 -9753361.057 22446222.849 7327518.006 10 0 60937 81900.00000 0 -9338445.643 21433257.403 10304347.265 10 0 60937 82800.00000 0 -8940810.541 20044206.697 13081973.498 10 0 60937 83700.00000 0 -8614154.825 18305870.972 15606754.563 10 0 60937 84600.00000 0 -8406784.808 16256965.764 17829930.484 10 0 60937 85500.00000 0 -8359416.421 13946691.065 19708548.671 10 0 60938 0.00000 0 -8503306.824 11432880.641 21206279.632 10 0 60938 900.00000 0 -8858792.911 8779805.320 22294109.657 10 0 60938 1800.00000 0 -9434297.397 6055722.708 22950896.341 10 0 60938 2700.00000 0 -10225844.701 3330268.087 23163779.620 10 0 60938 3600.00000 0 -11217107.788 671795.485 22928438.474 10 0 60938 4500.00000 0 -12379985.810 -1855224.457 22249188.803 10 0 60938 5400.00000 0 -13675690.614 -4192643.662 21138919.416 10 0 60938 6300.00000 0 -15056299.314 -6290813.036 19618865.844 10 0 60938 7200.00000 0 -16466710.642 -8110406.489 17718224.386 10 0 60938 8100.00000 0 -17846925.599 -9623816.800 15473611.660 10 0 60938 9000.00000 0 -19134558.839 -10816064.712 12928377.842 10 0 60938 9900.00000 0 -20267476.667 -11685182.353 10131784.830 10 0 60938 10800.00000 0 -21186451.239 -12242053.809 7138063.513 10 0 60938 11700.00000 0 -21837718.837 -12509718.368 4005367.220 10 0 60938 12600.00000 0 -22175333.121 -12522164.784 794641.131 10 0 60938 13500.00000 0 -22163212.097 -12322666.846 -2431570.233 10 0 60938 14400.00000 0 -21776789.903 -11961730.579 -5610353.470 10 0 60938 15300.00000 0 -21004200.938 -11494740.543 -8679669.327 10 0 60938 16200.00000 0 -19846943.710 -10979406.166 -11579582.272 10 0 60938 17100.00000 0 -18319994.030 -10473118.111 -14253450.598 10 0 60938 18000.00000 0 -16451361.052 -10030328.863 -16649051.722 10 0 60938 18900.00000 0 -14281103.745 -9700070.824 -18719618.790 10 0 60938 19800.00000 0 -11859848.800 -9523719.226 -20424766.792 10 0 60938 20700.00000 0 -9246872.515 -9533096.440 -21731288.889 10 0 60938 21600.00000 0 -6507827.877 -9748999.222 -22613806.831 10 0 60938 22500.00000 0 -3712213.082 -10180211.917 -23055262.642 10 0 60938 23400.00000 0 -930688.501 -10823047.374 -23047242.381 10 0 60938 24300.00000 0 1767644.907 -11661434.475 -22590126.470 10 0 60938 25200.00000 0 4317891.675 -12667547.570 -21693064.821 10 0 60938 26100.00000 0 6661822.040 -13802949.927 -20373778.590 10 0 60938 27000.00000 0 8750044.509 -15020201.526 -18658193.927 10 0 60938 27900.00000 0 10543801.607 -16264861.970 -16579916.342 10 0 60938 28800.00000 0 12016316.051 -17477802.858 -14179557.395 10 0 60938 29700.00000 0 13153633.838 -18597731.312 -11503928.118 10 0 60938 30600.00000 0 13954932.128 -19563817.873 -8605115.978 10 0 60938 31500.00000 0 14432282.280 -20318318.125 -5539464.258 10 0 60938 32400.00000 0 14609881.192 -20809078.145 -2366474.288 10 0 60938 33300.00000 0 14522786.061 -20991819.260 852347.866 10 0 60938 34200.00000 0 14215208.080 -20832107.188 4054677.879 10 0 60938 35100.00000 0 13738438.479 -20306924.186 7178570.185 10 0 60938 36000.00000 0 13148495.065 -19405779.509 10163643.144 10 0 60938 36900.00000 0 12503588.439 -18131312.721 12952230.427 10 0 60938 37800.00000 0 11861513.940 -16499365.352 15490477.761 10 0 60938 38700.00000 0 11277077.932 -14538518.079 17729365.413 10 0 60938 39600.00000 0 10799665.204 -12289112.340 19625638.325 10 0 60938 40500.00000 0 10471048.151 -9801796.096 21142627.616 10 0 60938 41400.00000 0 10323528.356 -7135652.524 22250949.105 10 0 60938 42300.00000 0 10378487.577 -4355987.219 22929066.516 10 0 60938 43200.00000 0 10645408.486 -1531863.188 23163709.286 10 0 60938 44100.00000 0 11121406.527 1266516.855 22950137.085 10 0 60938 45000.00000 0 11791293.514 3970474.930 22292245.559 10 0 60938 45900.00000 0 12628172.024 6515460.838 21202510.279 10 0 60938 46800.00000 0 13594537.838 8843487.613 19701768.444 10 0 60938 47700.00000 0 14643846.693 10905299.417 17818840.613 10 0 60938 48600.00000 0 15722482.048 12662182.186 15589997.613 10 0 60938 49500.00000 0 16772043.399 14087341.459 13058280.627 10 0 60938 50400.00000 0 17731860.551 15166789.064 10272685.588 10 0 60938 51300.00000 0 18541628.853 15899700.478 7287225.890 10 0 60938 52200.00000 0 19144054.358 16298226.567 4159890.398 10 0 60938 53100.00000 0 19487396.365 16386766.405 951516.394 10 0 60938 54000.00000 0 19527798.322 16200730.921 -2275400.509 10 0 60938 54900.00000 0 19231306.230 15784849.096 -5457935.586 10 0 60938 55800.00000 0 18575486.525 15191088.527 -8533978.035 10 0 60938 56700.00000 0 17550572.260 14476279.136 -11443461.810 10 0 60938 57600.00000 0 16160086.473 13699542.050 -14129558.244 10 0 60938 58500.00000 0 14420914.210 12919634.395 -16539805.057 10 0 60938 59400.00000 0 12362818.543 12192324.538 -18627147.818 10 0 60938 60300.00000 0 10027419.946 11567910.983 -20350871.888 10 0 60938 61200.00000 0 7466681.717 11088991.780 -21677405.475 10 0 60938 62100.00000 0 4740965.324 10788580.187 -22580977.461 10 0 60938 63000.00000 0 1916737.870 10688647.025 -23044117.035 10 0 60938 63900.00000 0 -935971.366 10799151.460 -23057985.749 10 0 60938 64800.00000 0 -3746258.131 11117600.600 -22622536.315 10 0 60938 65700.00000 0 -6445061.276 11629155.397 -21746496.188 10 0 60938 66600.00000 0 -8967798.041 12307276.851 -20447177.626 10 0 60938 67500.00000 0 -11256807.024 13114883.475 -18750119.406 10 0 60938 68400.00000 0 -13263498.003 14005969.369 -16688568.681 10 0 60938 69300.00000 0 -14950120.552 14927612.932 -14302814.534 10 0 60938 70200.00000 0 -16291079.980 15822290.116 -11639387.516 10 0 60938 71100.00000 0 -17273748.363 16630393.658 -8750141.847 10 0 60938 72000.00000 0 -17898739.799 17292851.577 -5691239.084 10 0 60938 72900.00000 0 -18179641.492 17753734.569 -2522053.596 10 0 60938 73800.00000 0 -18142214.911 17962742.904 695978.580 10 0 60938 74700.00000 0 -17823103.101 17877468.982 3900545.134 10 0 60938 75600.00000 0 -17268100.429 17465341.442 7029654.538 10 0 60938 76500.00000 0 -16530058.766 16705170.317 10022822.303 10 0 60938 77400.00000 0 -15666518.602 15588229.434 12822224.500 10 0 60938 78300.00000 0 -14737164.449 14118831.510 15373797.597 10 0 60938 79200.00000 0 -13801210.526 12314372.169 17628264.971 10 0 60938 80100.00000 0 -12914825.179 10204840.806 19542071.879 10 0 60938 81000.00000 0 -12128700.482 7831817.797 21078212.563 10 0 60938 81900.00000 0 -11485867.287 5246998.217 22206935.029 10 0 60938 82800.00000 0 -11019845.891 2510301.337 22906311.062 10 0 60938 83700.00000 0 -10753208.805 -312358.192 23162661.312 10 0 60938 84600.00000 0 -10696615.417 -3151547.806 22970827.408 10 0 60938 85500.00000 0 -10848359.303 -5936943.237 22334285.541 10 0 60939 0.00000 0 -11194448.098 -8599996.923 21265098.428 10 0 60939 900.00000 0 -11709214.413 -11076541.499 19783704.474 10 0 60939 1800.00000 0 -12356433.657 -13309218.262 17918547.774 10 0 60939 2700.00000 0 -13090904.709 -15249635.236 15705552.032 10 0 60939 3600.00000 0 -13860428.680 -16860161.475 13187447.642 10 0 60939 4500.00000 0 -14608104.394 -18115283.609 10412962.348 10 0 60939 5400.00000 0 -15274845.006 -19002466.600 7435889.490 10 0 60939 6300.00000 0 -15802009.955 -19522481.243 4314050.631 10 0 60939 7200.00000 0 -16134040.579 -19689183.217 1108172.114 10 0 60939 8100.00000 0 -16220986.660 -19528751.715 -2119302.547 10 0 60939 9000.00000 0 -16020814.951 -19078418.909 -5305440.603 10 0 60939 9900.00000 0 -15501399.432 -18384743.594 -8388063.057 10 0 60939 10800.00000 0 -14642106.214 -17501502.341 -11306976.720 10 0 60939 11700.00000 0 -13434903.251 -16487288.317 -14005169.279 10 0 60939 12600.00000 0 -11884945.367 -15402920.893 -16429941.942 10 0 60939 13500.00000 0 -10010607.833 -14308777.485 -18533955.631 10 0 60939 14400.00000 0 -7842965.607 -13262162.428 -20276168.669 10 0 60939 15300.00000 0 -5424739.372 -12314825.992 -21622646.442 10 0 60939 16200.00000 0 -2808752.507 -11510739.823 -22547226.553 10 0 60939 17100.00000 0 -55964.089 -10884223.659 -23032026.358 10 0 60939 18000.00000 0 2766838.965 -10458502.639 -23067783.308 10 0 60939 18900.00000 0 5589593.232 -10244755.606 -22654022.242 10 0 60939 19800.00000 0 8341646.244 -10241693.415 -21799047.490 10 0 60939 20700.00000 0 10954467.408 -10435683.366 -20519761.288 10 0 60939 21600.00000 0 13364269.244 -10801412.463 -18841313.516 10 0 60939 22500.00000 0 15514430.207 -11303059.341 -16796591.081 10 0 60939 23400.00000 0 17357619.136 -11895923.237 -14425558.355 10 0 60939 24300.00000 0 18857534.493 -12528439.358 -11774462.849 10 0 60939 25200.00000 0 19990188.089 -13144494.039 -8894922.682 10 0 60939 26100.00000 0 20744682.319 -13685940.964 -5842914.566 10 0 60939 27000.00000 0 21123451.343 -14095211.747 -2677682.611 10 0 60939 27900.00000 0 21141958.991 -14317910.823 539410.563 10 0 60939 28800.00000 0 20827868.709 -14305285.719 3746068.039 10 0 60939 29700.00000 0 20219722.584 -14016469.533 6880255.571 10 0 60939 30600.00000 0 19365186.441 -13420402.268 9881388.824 10 0 60939 31500.00000 0 18318935.538 -12497351.330 12691488.952 10 0 60939 32400.00000 0 17140269.691 -11239968.245 15256285.470 10 0 60939 33300.00000 0 15890557.260 -9653837.772 17526246.760 10 0 60939 34200.00000 0 14630613.982 -7757496.411 19457519.868 10 0 60939 35100.00000 0 13418124.872 -5581918.840 21012763.224 10 0 60939 36000.00000 0 12305215.354 -3169492.314 22161857.681 10 0 60939 36900.00000 0 11336271.530 -572519.750 22882483.365 10 0 60939 37800.00000 0 10546099.316 2148688.821 23160552.038 10 0 60939 38700.00000 0 9958498.462 4928060.046 22990486.846 10 0 60939 39600.00000 0 9585310.732 7696246.113 22375343.736 10 0 60939 40500.00000 0 9425982.397 10383258.310 21326771.258 10 0 60939 41400.00000 0 9467660.294 12921138.441 19864808.045 10 0 60939 42300.00000 0 9685818.936 15246559.075 18017519.978 10 0 60939 43200.00000 0 10045394.149 17303245.669 15820481.842 10 0 60939 44100.00000 0 10502377.537 19044120.176 13316111.265 10 0 60939 45000.00000 0 11005806.378 20433076.291 10552865.678 10 0 60939 45900.00000 0 11500066.407 21446311.208 7584316.117 10 0 60939 46800.00000 0 11927410.937 22073156.645 4468114.491 10 0 60939 47700.00000 0 12230589.719 22316372.612 1264873.780 10 0 60939 48600.00000 0 12355475.402 22191889.999 -1963017.035 10 0 60939 49500.00000 0 12253574.664 21728011.516 -5152619.573 10 0 60939 50400.00000 0 11884315.321 20964103.916 -8241688.935 10 0 60939 51300.00000 0 11217009.815 19948836.554 -11169906.913 10 0 60939 52200.00000 0 10232409.059 18738041.172 -13880079.482 10 0 60939 53100.00000 0 8923778.120 17392284.482 -16319273.058 10 0 60939 54000.00000 0 7297445.902 15974257.669 -18439865.442 10 0 60939 54900.00000 0 5372803.704 14546094.885 -20200489.260 10 0 60939 55800.00000 0 3181751.515 13166735.767 -21566848.255 10 0 60939 56700.00000 0 767614.759 11889444.806 -22512389.790 10 0 60939 57600.00000 0 -1816423.050 10759593.248 -23018820.271 10 0 60939 58500.00000 0 -4509305.490 9812797.436 -23076453.724 10 0 60939 59400.00000 0 -7244422.425 9073491.720 -22684387.542 10 0 60939 60300.00000 0 -9952165.424 8553994.998 -21850503.035 10 0 60939 61200.00000 0 -12562611.942 8254108.513 -20591292.153 10 0 60939 62100.00000 0 -15008225.875 8161259.678 -18931515.227 10 0 60939 63000.00000 0 -17226461.917 8251183.348 -16903697.884 10 0 60939 63900.00000 0 -19162165.683 8489109.255 -14547478.433 10 0 60939 64800.00000 0 -20769670.688 8831403.102 -11908819.711 10 0 60939 65700.00000 0 -22014506.438 9227589.941 -9039101.911 10 0 60939 66600.00000 0 -22874648.509 9622672.812 -5994114.941 10 0 60939 67500.00000 0 -23341260.904 9959647.701 -2832970.582 10 0 60939 68400.00000 0 -23418902.327 10182108.184 383044.121 10 0 60939 69300.00000 0 -23125190.299 10236829.944 3591649.888 10 0 60939 70200.00000 0 -22489939.484 10076226.716 6730772.093 10 0 60939 71100.00000 0 -21553812.098 9660575.067 9739729.006 10 0 60939 72000.00000 0 -20366538.110 8959915.381 12560389.381 10 0 60939 72900.00000 0 -18984780.224 7955550.102 15138278.360 10 0 60939 73800.00000 0 -17469732.744 6641077.027 17423611.879 10 0 60939 74700.00000 0 -15884553.868 5022914.582 19372241.249 10 0 60939 75600.00000 0 -14291737.323 3120296.731 20946491.379 10 0 60939 76500.00000 0 -12750531.361 964736.634 22115878.016 10 0 60939 77400.00000 0 -11314511.039 -1401020.279 22857691.363 10 0 60939 78300.00000 0 -10029403.337 -3924512.639 23157435.654 10 0 60939 79200.00000 0 -8931254.452 -6545488.611 23009116.508 10 0 60939 80100.00000 0 -8045014.890 -9198163.542 22415370.155 10 0 60939 81000.00000 0 -7383601.108 -11813719.049 21387431.176 10 0 60939 81900.00000 0 -6947473.297 -14322942.514 19944937.879 10 0 60939 82800.00000 0 -6724747.889 -16658899.513 18115577.191 10 0 60939 83700.00000 0 -6691841.443 -18759529.580 15934573.750 10 0 60939 84600.00000 0 -6814620.492 -20570057.939 13444030.782 10 0 60939 85500.00000 0 -7050010.582 -22045122.490 10692133.445 99